Hermosillo, Mexico

7:08 PM MDT on August 30, 2016 (GMT -0600)
Gen Ignacio Pesqueira Garcia

Weather History for MMHO - September, 2012

Change the Weather History Date:

Saturday, September 29, 2012

  Actual Average Record
Temperature  
Mean Temperature 86 °F -  
Max Temperature 96 °F 90 °F 107 °F (1999)
Min Temperature 77 °F 64 °F 66 °F (2013)
Cooling Degree Days 22    
Growing Degree Days 36 (Base 50)    
Moisture  
Dew Point 68 °F    
Average Humidity 54    
Maximum Humidity 74    
Minimum Humidity 30    
Precipitation  
Precipitation 0.00 in - - ()
Sea Level Pressure  
Sea Level Pressure 29.89 in    
Wind  
Wind Speed 3 mph ()    
Max Wind Speed 16 mph    
Max Gust Speed -    
Visibility 10.1 miles    
Events      
Averages and records for this station are not official NWS values.
T = Trace of Precipitation, MM = Missing Value Source: Averaged Metar Reports

Daily Weather History Graph

Daily Weather History Graph

Search for Another Location

Airport or City:

Trip Planner

Search our weather history database for the weather conditions in past years. The results will help you decide how hot, cold, wet, or windy it might be!

Date:

Astronomy

Sep. 29, 2012 Rise Set
Actual Time 7:16 AM MDT 7:11 PM MDT
Civil Twilight 6:52 AM MDT 7:35 PM MDT
Nautical Twilight 6:25 AM MDT 8:02 PM MDT
Astronomical Twilight 5:57 AM MDT 8:30 PM MDT
Moon 6:50 PM MDT (9/29) 6:49 AM MDT (9/29)
Length of Visible Light 12h 42m
Length of Day
11h 55m
Full, 100% of the Moon is Illuminated
Sep 29
Full
Sep 29
Full
Oct 8
Last Quarter
Oct 15
New
Oct 21
First Quarter

Hourly Weather History & Observations

Time (MDT) Temp. Heat Index Dew Point Humidity Pressure Visibility Wind Dir Wind Speed Gust Speed Precip Events Conditions
12:42 AM - - - N/A% - 10.0 mi Calm Calm - N/A   Partly Cloudy
1:42 AM 82.4 °F 86.3 °F 69.8 °F 66% 29.90 in 10.0 mi East 4.6 mph - N/A   Partly Cloudy
2:44 AM 82.4 °F 87.2 °F 71.6 °F 70% 29.84 in 10.0 mi East 3.5 mph - N/A   Partly Cloudy
3:43 AM 80.6 °F 84.6 °F 71.6 °F 74% 29.90 in 10.0 mi ENE 5.8 mph - N/A   Scattered Clouds
4:43 AM 80.6 °F 83.9 °F 69.8 °F 70% 29.89 in 10.0 mi Calm Calm - N/A   Scattered Clouds
5:45 AM 78.8 °F - 69.8 °F 74% 29.85 in 10.0 mi Calm Calm - N/A   Scattered Clouds
6:40 AM 78.8 °F - 69.8 °F 74% 29.92 in 10.0 mi Calm Calm - N/A   Clear
7:41 AM 80.6 °F 82.7 °F 66.2 °F 61% 29.93 in 10.0 mi Calm Calm - N/A   Clear
8:43 AM 82.4 °F 84.6 °F 66.2 °F 58% 29.95 in 10.0 mi NE 6.9 mph - N/A   Clear
9:40 AM 86.0 °F 88.2 °F 66.2 °F 51% 29.97 in 10.0 mi ENE 4.6 mph - N/A   Clear
10:49 AM 87.8 °F 90.4 °F 66.2 °F 49% 29.96 in 10.0 mi Calm Calm - N/A   Clear
11:30 AM 89 °F - 67 °F 39% 29.91 in 7 mi NE 2.2 mph - -  
11:42 AM 89.6 °F 92.2 °F 66.2 °F 46% 29.89 in 10.0 mi Calm Calm - N/A   Partly Cloudy
12:49 PM 91.4 °F 94.0 °F 66.2 °F 43% 29.94 in 10.0 mi West 5.8 mph - N/A   Scattered Clouds
1:47 PM 95.0 °F 97.0 °F 64.4 °F 36% 29.91 in 10.0 mi WSW 6.9 mph - N/A   Scattered Clouds
2:49 PM 95.0 °F 97.0 °F 64.4 °F 36% 29.83 in 10.0 mi East 4.6 mph - N/A   Scattered Clouds
3:44 PM 96.8 °F 98.0 °F 62.6 °F 32% 29.85 in 10.0 mi West 4.6 mph - N/A   Scattered Clouds
4:41 PM 96.8 °F 97.1 °F 60.8 °F 30% 29.84 in 12.0 mi NE 4.6 mph - N/A   Scattered Clouds
5:42 PM 96.8 °F 97.1 °F 60.8 °F 30% 29.83 in 12.0 mi West 4.6 mph - N/A   Partly Cloudy
6:42 PM 96.8 °F 97.1 °F 60.8 °F 30% 29.83 in 12.0 mi SSW 6.9 mph - N/A   Clear
7:45 PM 87.8 °F 93.8 °F 71.6 °F 58% 29.85 in 10.0 mi SSW 16.1 mph - N/A   Clear
8:44 PM 86.0 °F 91.8 °F 71.6 °F 62% 29.86 in 10.0 mi SSW 10.4 mph - N/A   Clear
9:46 PM 84.2 °F 90.9 °F 73.4 °F 70% 29.91 in 10.0 mi SSW 10.4 mph - N/A   Clear
10:44 PM 82.4 °F 88.2 °F 73.4 °F 74% 29.93 in 10.0 mi SSW 9.2 mph - N/A   Clear
11:41 PM 82.4 °F 88.2 °F 73.4 °F 74% 29.88 in 10.0 mi SSW 5.8 mph - N/A   Clear